Location: Forest
(37.3641°N, 79.2902°W)
Time: 20:03:37
(UTC+00:00)

Explorer 11/Cluster Stage 4 - Pass Details

Date: 13 November 2024
Orbit: 464 x 1202 km, 28.8° (Epoch: 03 December)

Event Time Altitude Azimuth Distance (km) Brightness Sun altitude
Exits shadow 09:46:58 21° 177° (S) 1,355 7.8 -25.5°
Maximum altitude 09:47:14 21° 172° (S) 1,342 7.9 -25.4°
Drops below altitude 10° 09:50:20 10° 122° (ESE) 1,786 9.2 -24.8°
Sets 09:52:49 0° 105° (ESE) 2,593 10.6 -24.3°
